| time (UTC) | temp F | wind direction | speed knots | gust knots | rain 1hr in | rain 24hr in | rain mn in | humidity % | barometer mb |
| 20260505201555 | 62 | 220 | 0.0 | 0.9 | 0.00 | 0.00 | 0.00 | 79 | 1007.4 |
| 20260505200058 | 64 | 0 | 0.0 | 1.7 | 0.00 | 0.00 | 0.00 | 76 | 1007.3 |
| 20260505194603 | 65 | 0 | 0.9 | 4.3 | 0.00 | 0.00 | 0.00 | 72 | 1007.3 |
| 20260505193128 | 65 | 271 | 0.9 | 3.5 | 0.00 | 0.00 | 0.00 | 71 | 1007.4 |
| 20260505191605 | 65 | 283 | 0.9 | 5.2 | 0.00 | 0.00 | 0.00 | 72 | 1007.5 |
| 20260505190058 | 65 | 285 | 1.7 | 5.2 | 0.00 | 0.00 | 0.00 | 72 | 1007.7 |
| 20260505184603 | 64 | 256 | 1.7 | 3.5 | 0.00 | 0.00 | 0.00 | 73 | 1007.9 |
| 20260505183055 | 63 | 234 | 3.5 | 8.7 | 0.00 | 0.00 | 0.00 | 72 | 1008.2 |
| 20260505181556 | 64 | 274 | 2.6 | 9.6 | 0.00 | 0.00 | 0.00 | 71 | 1008.3 |
| 20260505180058 | 64 | 288 | 3.5 | 8.7 | 0.00 | 0.00 | 0.00 | 70 | 1007.9 |
| 20260505174556 | 65 | 235 | 3.5 | 10.4 | 0.00 | 0.00 | 0.00 | 69 | 1007.8 |
| 20260505173100 | 65 | 342 | 5.2 | 12.2 | 0.00 | 0.00 | 0.00 | 67 | 1007.8 |
| 20260505171559 | 66 | 274 | 5.2 | 9.6 | 0.00 | 0.00 | 0.00 | 65 | 1007.6 |
| 20260505170056 | 67 | 272 | 4.3 | 12.2 | 0.00 | 0.00 | 0.00 | 63 | 1007.6 |
| 20260505164557 | 67 | 284 | 1.7 | 7.8 | 0.00 | 0.00 | 0.00 | 64 | 1007.5 |
| 20260505163059 | 68 | 248 | 2.6 | 7.8 | 0.00 | 0.00 | 0.00 | 63 | 1007.5 |
| 20260505161559 | 69 | 285 | 2.6 | 9.6 | 0.00 | 0.00 | 0.00 | 62 | 1007.5 |
| 20260505153104 | 69 | 218 | 1.7 | 11.3 | 0.00 | 0.00 | 0.00 | 66 | 1007.0 |
| 20260505151558 | 68 | 8 | 3.5 | 11.3 | 0.00 | 0.00 | 0.00 | 66 | 1007.1 |
| 20260505130116 | 60 | 304 | 0.0 | 0.9 | 0.00 | 0.00 | 0.00 | 77 | 1007.0 |
| 20260505124617 | 60 | 284 | 1.7 | 5.2 | 0.00 | 0.00 | 0.00 | 76 | 1007.0 |
| 20260505123116 | 60 | 84 | 1.7 | 5.2 | 0.00 | 0.00 | 0.00 | 77 | 1006.4 |
| 20260505121559 | 59 | 304 | 0.0 | 3.5 | 0.00 | 0.00 | 0.00 | 78 | 1005.9 |
| 20260505120103 | 59 | 209 | 0.9 | 4.3 | 0.00 | 0.00 | 0.00 | 77 | 1005.8 |
| 20260505114555 | 60 | 248 | 0.9 | 3.5 | 0.00 | 0.00 | 0.00 | 76 | 1006.2 |
| 20260505113059 | 60 | 271 | 0.9 | 7.0 | 0.00 | 0.00 | 0.00 | 75 | 1006.4 |
| 20260505111556 | 60 | 273 | 0.9 | 5.2 | 0.00 | 0.00 | 0.00 | 76 | 1006.1 |
| 20260505101557 | 60 | 256 | 0.9 | 3.5 | 0.00 | 0.00 | 0.00 | 75 | 1005.4 |
| 20260505100058 | 60 | 291 | 0.9 | 6.1 | 0.00 | 0.00 | 0.00 | 74 | 1005.4 |
| 20260505094556 | 60 | 307 | 0.9 | 4.3 | 0.00 | 0.00 | 0.00 | 74 | 1005.2 |
| 20260505093058 | 60 | 332 | 0.9 | 3.5 | 0.00 | 0.00 | 0.00 | 73 | 1005.0 |
| 20260505091620 | 61 | 0 | 0.0 | 2.6 | 0.00 | 0.00 | 0.00 | 71 | 1004.9 |
| 20260505090124 | 62 | 227 | 0.9 | 8.7 | 0.00 | 0.00 | 0.00 | 69 | 1004.7 |
| 20260505084615 | 62 | 323 | 2.6 | 7.8 | 0.00 | 0.00 | 0.00 | 70 | 1004.5 |
| 20260505083111 | 62 | 310 | 1.7 | 6.1 | 0.00 | 0.00 | 0.00 | 71 | 1004.5 |
| 20260505081606 | 61 | 296 | 1.7 | 6.1 | 0.00 | 0.00 | 0.00 | 73 | 1004.6 |
| 20260505074556 | 60 | 0 | 0.9 | 2.6 | 0.00 | 0.00 | 0.00 | 76 | 1004.1 |
| 20260505073102 | 59 | 269 | 0.0 | 0.9 | 0.00 | 0.00 | 0.00 | 77 | 1004.0 |
| 20260505071615 | 59 | 236 | 0.0 | 1.7 | 0.00 | 0.00 | 0.00 | 77 | 1003.9 |
| 20260505070059 | 58 | 34 | 0.0 | 2.6 | 0.00 | 0.00 | 0.00 | 78 | 1004.0 |
| 20260505064603 | 58 | 0 | 0.0 | 0.9 | 0.00 | 0.00 | 0.00 | 77 | 1004.2 |
| 20260505063100 | 59 | 0 | 0.0 | 0.9 | 0.00 | 0.00 | 0.00 | 76 | 1004.2 |
| 20260505061557 | 59 | 0 | 0.0 | 2.6 | 0.00 | 0.00 | 0.00 | 76 | 1004.5 |
| 20260505054557 | 61 | 0 | 0.0 | 1.7 | 0.00 | 0.00 | 0.00 | 73 | 1004.8 |
| 20260505053059 | 61 | 295 | 0.0 | 3.5 | 0.00 | 0.00 | 0.00 | 73 | 1004.9 |
| 20260505051556 | 61 | 334 | 0.9 | 4.3 | 0.00 | 0.00 | 0.00 | 73 | 1004.9 |
| 20260505041602 | 61 | 191 | 0.9 | 3.5 | 0.00 | 0.00 | 0.00 | 74 | 1005.2 |
| 20260505040059 | 60 | 133 | 0.9 | 2.6 | 0.00 | 0.00 | 0.00 | 75 | 1005.1 |
| 20260505034554 | 60 | 278 | 0.0 | 3.5 | 0.00 | 0.00 | 0.00 | 74 | 1005.3 |
| 20260505033055 | 60 | 0 | 0.9 | 3.5 | 0.00 | 0.00 | 0.00 | 72 | 1005.5 |
| 20260505031554 | 61 | 0 | 0.0 | 3.5 | 0.00 | 0.00 | 0.00 | 72 | 1005.5 |
| 20260505030111 | 61 | 217 | 0.0 | 6.1 | 0.00 | 0.00 | 0.00 | 71 | 1005.4 |
| 20260505024559 | 61 | 0 | 0.9 | 2.6 | 0.00 | 0.00 | 0.00 | 71 | 1005.4 |
| 20260505023055 | 61 | 141 | 0.9 | 7.0 | 0.00 | 0.00 | 0.00 | 71 | 1005.3 |
| 20260505021554 | 61 | 11 | 0.0 | 2.6 | 0.00 | 0.00 | 0.00 | 71 | 1005.4 |
| 20260505020059 | 61 | 62 | 0.0 | 1.7 | 0.00 | 0.00 | 0.00 | 69 | 1005.5 |
| 20260505014609 | 62 | 98 | 0.0 | 1.7 | 0.00 | 0.00 | 0.00 | 68 | 1005.5 |
| 20260505013058 | 63 | 295 | 0.0 | 3.5 | 0.00 | 0.00 | 0.00 | 66 | 1005.5 |
| 20260505011558 | 64 | 281 | 0.9 | 5.2 | 0.00 | 0.00 | 0.00 | 64 | 1005.4 |
| 20260505004555 | 65 | 274 | 0.9 | 7.0 | 0.00 | 0.00 | 0.00 | 61 | 1005.1 |
| 20260505003117 | 66 | 236 | 2.6 | 9.6 | 0.00 | 0.00 | 0.00 | 60 | 1004.9 |
| 20260505001559 | 66 | 284 | 0.9 | 4.3 | 0.00 | 0.00 | 0.00 | 60 | 1004.6 |
| 20260505000107 | 68 | 302 | 0.0 | 3.5 | 0.00 | 0.00 | 0.00 | 59 | 1004.4 |
| 20260504234555 | 70 | 301 | 0.0 | 5.2 | 0.00 | 0.00 | 0.00 | 55 | 1004.3 |
| 20260504233057 | 72 | 326 | 0.9 | 2.6 | 0.00 | 0.00 | 0.00 | 54 | 1004.2 |
| 20260504231556 | 72 | 310 | 1.7 | 5.2 | 0.00 | 0.00 | 0.00 | 53 | 1004.2 |
| 20260504230059 | 72 | 269 | 1.7 | 8.7 | 0.00 | 0.00 | 0.00 | 55 | 1004.4 |
| 20260504224559 | 70 | 299 | 3.5 | 9.6 | 0.00 | 0.00 | 0.00 | 53 | 1004.6 |
| 20260504223117 | 72 | 271 | 1.7 | 6.1 | 0.00 | 0.00 | 0.00 | 53 | 1004.5 |
| 20260504221603 | 71 | 79 | 0.9 | 7.8 | 0.00 | 0.00 | 0.00 | 58 | 1004.6 |
| 20260504214558 | 73 | 281 | 1.7 | 6.1 | 0.00 | 0.00 | 0.00 | 53 | 1004.8 |
| 20260504213106 | 72 | 235 | 2.6 | 7.0 | 0.00 | 0.00 | 0.00 | 55 | 1004.8 |
| 20260504211649 | 71 | 108 | 2.6 | 10.4 | 0.00 | 0.00 | 0.00 | 53 | 1004.8 |
| 20260504210056 | 73 | 245 | 1.7 | 6.1 | 0.00 | 0.00 | 0.00 | 52 | 1005.0 |
| 20260504204603 | 73 | 281 | 2.6 | 7.0 | 0.00 | 0.00 | 0.00 | 53 | 1005.2 |
| 20260504203107 | 73 | 314 | 1.7 | 6.1 | 0.00 | 0.00 | 0.00 | 54 | 1005.2 |